Time,TemperatureF,DewpointF,PressureIn,WindDirection,WindDirectionDegrees,WindSpeedMPH,WindSpeedGustMPH,Humidity,HourlyPrecipIn,Conditions,Clouds,dailyrainin,SolarRadiationWatts/m^2,SoftwareType,DateUTC
2014-11-24 00:01:00,78.4,75.9,29.94,North,0,0.0,7.0,92,0.00,,,0.00,0.0,meteohub,2014-11-24 05:01:00,
2014-11-24 00:06:00,78.4,75.9,29.94,North,0,5.0,8.0,92,0.00,,,0.00,0.0,meteohub,2014-11-24 05:06:00,
2014-11-24 00:11:00,78.8,76.3,29.94,North,0,6.0,9.0,92,0.00,,,0.00,0.0,meteohub,2014-11-24 05:11:00,
2014-11-24 00:16:00,79.0,76.5,29.94,North,0,2.0,9.0,92,0.00,,,0.00,0.0,meteohub,2014-11-24 05:16:00,
2014-11-24 00:21:00,79.0,76.5,29.94,North,0,4.0,9.0,92,0.00,,,0.00,0.0,meteohub,2014-11-24 05:21:00,
2014-11-24 00:26:00,79.0,76.5,29.94,North,0,7.0,9.0,92,0.00,,,0.00,0.0,meteohub,2014-11-24 05:26:00,
2014-11-24 00:31:00,79.0,76.5,29.94,North,0,0.0,10.0,92,0.00,,,0.00,0.0,meteohub,2014-11-24 05:31:00,
2014-11-24 00:36:00,79.0,76.5,29.94,North,0,0.0,10.0,92,0.00,,,0.00,0.0,meteohub,2014-11-24 05:36:00,
2014-11-24 00:41:00,79.2,76.6,29.94,North,0,6.0,9.0,92,0.00,,,0.00,0.0,meteohub,2014-11-24 05:41:00,
2014-11-24 00:46:00,79.2,76.6,29.94,North,0,5.0,16.0,92,0.00,,,0.00,0.0,meteohub,2014-11-24 05:46:00,
2014-11-24 00:51:00,79.2,76.6,29.94,North,0,0.0,16.0,92,0.00,,,0.00,0.0,meteohub,2014-11-24 05:51:00,
2014-11-24 00:56:00,79.0,76.5,29.94,North,0,0.0,11.0,92,0.00,,,0.00,0.0,meteohub,2014-11-24 05:56:00,
2014-11-24 01:01:00,79.0,76.5,29.94,North,0,0.0,8.0,92,0.00,,,0.00,0.0,meteohub,2014-11-24 06:01:00,
2014-11-24 01:06:00,78.8,76.3,29.94,North,0,0.0,8.0,92,0.00,,,0.00,0.0,meteohub,2014-11-24 06:06:00,
2014-11-24 01:11:00,78.8,76.6,29.94,North,0,1.0,8.0,93,0.00,,,0.00,0.0,meteohub,2014-11-24 06:11:00,
2014-11-24 01:16:00,78.8,76.3,29.94,North,0,6.0,11.0,92,0.00,,,0.00,0.0,meteohub,2014-11-24 06:16:00,
2014-11-24 01:21:00,78.8,76.3,29.94,North,0,0.0,11.0,92,0.00,,,0.00,0.0,meteohub,2014-11-24 06:21:00,
2014-11-24 01:26:00,78.8,76.3,29.94,North,0,1.0,11.0,92,0.00,,,0.00,0.0,meteohub,2014-11-24 06:26:00,
2014-11-24 01:31:00,78.6,76.1,29.94,North,0,3.0,7.0,92,0.00,,,0.00,0.0,meteohub,2014-11-24 06:31:00,
2014-11-24 01:36:00,78.8,76.3,29.94,North,0,6.0,11.0,92,0.00,,,0.00,0.0,meteohub,2014-11-24 06:36:00,
2014-11-24 01:41:00,78.8,75.9,29.94,North,0,7.0,11.0,91,0.00,,,0.00,0.0,meteohub,2014-11-24 06:41:00,
2014-11-24 01:46:00,78.8,75.9,29.94,North,0,4.0,10.0,91,0.00,,,0.00,0.0,meteohub,2014-11-24 06:46:00,
2014-11-24 01:51:00,78.6,75.7,29.94,North,0,0.0,10.0,91,0.00,,,0.00,0.0,meteohub,2014-11-24 06:51:00,
2014-11-24 01:56:00,78.6,76.1,29.93,North,0,7.0,10.0,92,0.00,,,0.00,0.0,meteohub,2014-11-24 06:56:00,
2014-11-24 02:01:00,78.6,75.7,29.93,North,0,0.0,10.0,91,0.00,,,0.00,0.0,meteohub,2014-11-24 07:01:00,
2014-11-24 02:06:00,78.4,75.9,29.93,North,0,3.0,10.0,92,0.00,,,0.00,0.0,meteohub,2014-11-24 07:06:00,
2014-11-24 02:11:00,78.4,75.9,29.93,North,0,5.0,10.0,92,0.00,,,0.00,0.0,meteohub,2014-11-24 07:11:00,
2014-11-24 02:16:00,78.3,75.7,29.94,North,0,3.0,9.0,92,0.00,,,0.00,0.0,meteohub,2014-11-24 07:16:00,
2014-11-24 02:21:00,78.3,75.7,29.93,North,0,0.0,8.0,92,0.00,,,0.00,0.0,meteohub,2014-11-24 07:21:00,
2014-11-24 02:26:00,78.1,75.9,29.93,North,0,0.0,6.0,93,0.00,,,0.00,0.0,meteohub,2014-11-24 07:26:00,
2014-11-24 02:31:00,78.1,75.9,29.93,North,0,0.0,5.0,93,0.00,,,0.00,0.0,meteohub,2014-11-24 07:31:00,
2014-11-24 02:36:00,77.9,75.7,29.93,North,0,0.0,5.0,93,0.00,,,0.00,0.0,meteohub,2014-11-24 07:36:00,
2014-11-24 02:41:00,77.7,75.6,29.93,North,0,2.0,5.0,93,0.00,,,0.00,0.0,meteohub,2014-11-24 07:41:00,
2014-11-24 02:46:00,77.9,75.7,29.93,North,0,4.0,5.0,93,0.00,,,0.00,0.0,meteohub,2014-11-24 07:46:00,
2014-11-24 02:51:00,77.9,75.7,29.93,North,0,2.0,7.0,93,0.00,,,0.00,0.0,meteohub,2014-11-24 07:51:00,
2014-11-24 02:56:00,77.7,75.6,29.93,North,0,0.0,7.0,93,0.00,,,0.00,0.0,meteohub,2014-11-24 07:56:00,
2014-11-24 03:01:00,77.7,75.9,29.93,North,0,0.0,7.0,94,0.00,,,0.00,0.0,meteohub,2014-11-24 08:01:00,
2014-11-24 03:06:00,77.7,75.9,29.93,North,0,0.0,5.0,94,0.00,,,0.00,0.0,meteohub,2014-11-24 08:06:00,
2014-11-24 03:11:00,77.7,75.9,29.93,North,0,5.0,6.0,94,0.00,,,0.00,0.0,meteohub,2014-11-24 08:11:00,
2014-11-24 03:16:00,77.5,75.7,29.92,North,0,5.0,7.0,94,0.00,,,0.00,0.0,meteohub,2014-11-24 08:16:00,
2014-11-24 03:21:00,77.7,75.9,29.92,North,0,0.0,8.0,94,0.00,,,0.00,0.0,meteohub,2014-11-24 08:21:00,
2014-11-24 03:26:00,77.7,75.9,29.92,North,0,4.0,8.0,94,0.00,,,0.00,0.0,meteohub,2014-11-24 08:26:00,
2014-11-24 03:31:00,77.7,75.9,29.92,North,0,5.0,8.0,94,0.00,,,0.00,0.0,meteohub,2014-11-24 08:31:00,
2014-11-24 03:36:00,77.7,75.9,29.92,North,0,0.0,8.0,94,0.00,,,0.00,0.0,meteohub,2014-11-24 08:36:00,
2014-11-24 03:41:00,77.5,75.7,29.92,North,0,0.0,7.0,94,0.00,,,0.00,0.0,meteohub,2014-11-24 08:41:00,
2014-11-24 03:46:00,77.5,75.7,29.92,North,0,0.0,7.0,94,0.00,,,0.00,0.0,meteohub,2014-11-24 08:46:00,
2014-11-24 03:51:00,77.5,75.9,29.92,North,0,0.0,6.0,95,0.00,,,0.00,0.0,meteohub,2014-11-24 08:51:00,
2014-11-24 03:56:00,77.5,75.9,29.92,North,0,0.0,6.0,95,0.00,,,0.00,0.0,meteohub,2014-11-24 08:56:00,
2014-11-24 04:01:00,77.5,75.9,29.92,North,0,0.0,5.0,95,0.00,,,0.00,0.0,meteohub,2014-11-24 09:01:00,
2014-11-24 04:06:00,77.4,75.7,29.93,North,0,0.0,5.0,95,0.00,,,0.00,0.0,meteohub,2014-11-24 09:06:00,
2014-11-24 04:11:00,77.4,75.7,29.93,North,0,0.0,5.0,95,0.00,,,0.00,0.0,meteohub,2014-11-24 09:11:00,
2014-11-24 04:16:00,77.2,75.6,29.93,North,0,0.0,3.0,95,0.00,,,0.00,0.0,meteohub,2014-11-24 09:16:00,
2014-11-24 04:21:00,77.2,75.6,29.93,North,0,0.0,3.0,95,0.00,,,0.00,0.0,meteohub,2014-11-24 09:21:00,
2014-11-24 04:26:00,77.2,75.6,29.93,North,0,0.0,3.0,95,0.00,,,0.00,0.0,meteohub,2014-11-24 09:26:00,
2014-11-24 04:31:00,77.0,75.4,29.93,North,0,0.0,0.0,95,0.00,,,0.00,0.0,meteohub,2014-11-24 09:31:00,
2014-11-24 04:36:00,77.0,75.7,29.93,North,0,0.0,0.0,96,0.00,,,0.00,0.0,meteohub,2014-11-24 09:36:00,
2014-11-24 04:41:00,76.8,75.6,29.93,North,0,0.0,0.0,96,0.00,,,0.00,0.0,meteohub,2014-11-24 09:41:00,
2014-11-24 04:46:00,76.8,75.6,29.93,North,0,0.0,0.0,96,0.00,,,0.00,0.0,meteohub,2014-11-24 09:46:00,
2014-11-24 04:51:00,76.8,75.6,29.93,North,0,0.0,0.0,96,0.00,,,0.00,0.0,meteohub,2014-11-24 09:51:00,
2014-11-24 04:56:00,76.8,75.6,29.94,North,0,0.0,0.0,96,0.00,,,0.00,0.0,meteohub,2014-11-24 09:56:00,
2014-11-24 05:01:00,76.8,75.6,29.94,North,0,0.0,6.0,96,0.00,,,0.00,0.0,meteohub,2014-11-24 10:01:00,
2014-11-24 05:06:00,76.8,75.6,29.94,North,0,0.0,6.0,96,0.00,,,0.00,0.0,meteohub,2014-11-24 10:06:00,
2014-11-24 05:11:00,77.0,75.7,29.94,North,0,5.0,6.0,96,0.00,,,0.00,0.0,meteohub,2014-11-24 10:11:00,
2014-11-24 05:16:00,77.2,75.9,29.94,North,0,0.0,5.0,96,0.00,,,0.00,0.0,meteohub,2014-11-24 10:16:00,
2014-11-24 05:21:00,77.2,75.9,29.94,North,0,0.0,6.0,96,0.00,,,0.00,0.0,meteohub,2014-11-24 10:21:00,
2014-11-24 05:26:00,77.2,75.9,29.94,North,0,0.0,6.0,96,0.00,,,0.00,0.0,meteohub,2014-11-24 10:26:00,
2014-11-24 05:31:00,77.0,75.7,29.94,North,0,0.0,3.0,96,0.00,,,0.00,0.0,meteohub,2014-11-24 10:31:00,
2014-11-24 05:36:00,77.0,75.7,29.95,North,0,0.0,5.0,96,0.00,,,0.00,0.0,meteohub,2014-11-24 10:36:00,
2014-11-24 05:41:00,77.0,75.7,29.95,North,0,0.0,5.0,96,0.00,,,0.00,0.0,meteohub,2014-11-24 10:41:00,
2014-11-24 05:46:00,77.0,75.7,29.95,North,0,0.0,5.0,96,0.00,,,0.00,0.0,meteohub,2014-11-24 10:46:00,
2014-11-24 05:51:00,77.0,75.7,29.95,North,0,0.0,3.0,96,0.00,,,0.00,0.0,meteohub,2014-11-24 10:51:00,
2014-11-24 05:56:00,77.0,75.7,29.95,North,0,0.0,3.0,96,0.00,,,0.00,0.0,meteohub,2014-11-24 10:56:00,
2014-11-24 06:01:00,77.0,75.7,29.95,North,0,0.0,5.0,96,0.00,,,0.00,0.0,meteohub,2014-11-24 11:01:00,
2014-11-24 06:06:00,76.8,75.6,29.96,North,0,0.0,5.0,96,0.00,,,0.00,0.0,meteohub,2014-11-24 11:06:00,
2014-11-24 06:11:00,76.8,75.6,29.95,North,0,0.0,0.0,96,0.00,,,0.00,0.0,meteohub,2014-11-24 11:11:00,
2014-11-24 06:16:00,76.8,75.6,29.96,North,0,0.0,0.0,96,0.00,,,0.00,0.0,meteohub,2014-11-24 11:16:00,
2014-11-24 06:21:00,76.8,75.6,29.96,North,0,0.0,0.0,96,0.00,,,0.00,0.0,meteohub,2014-11-24 11:21:00,
2014-11-24 06:26:00,76.6,75.4,29.96,North,0,0.0,0.0,96,0.00,,,0.00,0.0,meteohub,2014-11-24 11:26:00,
2014-11-24 06:31:00,76.6,75.7,29.96,North,0,0.0,0.0,97,0.00,,,0.00,0.0,meteohub,2014-11-24 11:31:00,
2014-11-24 06:36:00,76.6,75.7,29.96,North,0,0.0,0.0,97,0.00,,,0.00,0.0,meteohub,2014-11-24 11:36:00,
2014-11-24 06:41:00,76.6,75.7,29.96,North,0,0.0,0.0,97,0.00,,,0.00,0.0,meteohub,2014-11-24 11:41:00,
2014-11-24 06:46:00,76.5,75.6,29.97,North,0,0.0,0.0,97,0.00,,,0.00,0.0,meteohub,2014-11-24 11:46:00,
2014-11-24 06:51:00,76.5,75.6,29.96,North,0,0.0,0.0,97,0.00,,,0.00,0.0,meteohub,2014-11-24 11:51:00,
2014-11-24 06:56:00,76.5,75.6,29.97,North,0,0.0,0.0,97,0.00,,,0.00,5.0,meteohub,2014-11-24 11:56:00,
2014-11-24 07:01:00,76.5,75.6,29.97,North,0,0.0,0.0,97,0.00,,,0.00,9.0,meteohub,2014-11-24 12:01:00,
2014-11-24 07:06:00,76.5,75.6,29.97,North,0,0.0,0.0,97,0.00,,,0.00,16.0,meteohub,2014-11-24 12:06:00,
2014-11-24 07:11:00,76.5,75.6,29.97,North,0,0.0,0.0,97,0.00,,,0.00,26.0,meteohub,2014-11-24 12:11:00,
2014-11-24 07:16:00,76.6,75.7,29.98,North,0,0.0,0.0,97,0.00,,,0.00,25.0,meteohub,2014-11-24 12:16:00,
2014-11-24 07:21:00,76.6,75.7,29.98,North,0,0.0,0.0,97,0.00,,,0.00,30.0,meteohub,2014-11-24 12:21:00,
2014-11-24 07:26:00,76.6,75.7,29.98,North,0,0.0,0.0,97,0.00,,,0.00,62.0,meteohub,2014-11-24 12:26:00,
2014-11-24 07:31:00,76.8,75.9,29.99,North,0,0.0,0.0,97,0.00,,,0.00,74.0,meteohub,2014-11-24 12:31:00,
2014-11-24 07:36:00,77.2,76.3,29.99,North,0,0.0,0.0,97,0.00,,,0.00,93.0,meteohub,2014-11-24 12:36:00,
2014-11-24 07:41:00,77.4,76.5,29.99,North,0,0.0,0.0,97,0.00,,,0.00,105.0,meteohub,2014-11-24 12:41:00,
2014-11-24 07:46:00,77.5,76.6,29.99,North,0,0.0,1.0,97,0.00,,,0.00,123.0,meteohub,2014-11-24 12:46:00,
2014-11-24 07:51:00,77.7,76.8,29.99,North,0,0.0,1.0,97,0.00,,,0.00,141.0,meteohub,2014-11-24 12:51:00,
2014-11-24 07:56:00,78.1,76.8,29.99,North,0,0.0,4.0,96,0.00,,,0.00,155.0,meteohub,2014-11-24 12:56:00,
2014-11-24 08:01:00,78.3,77.0,29.99,North,0,1.0,4.0,96,0.00,,,0.00,165.0,meteohub,2014-11-24 13:01:00,
2014-11-24 08:06:00,78.4,77.2,29.99,North,0,3.0,4.0,96,0.00,,,0.00,181.0,meteohub,2014-11-24 13:06:00,
2014-11-24 08:12:00,78.8,77.5,29.99,North,0,0.0,8.0,96,0.00,,,0.00,197.0,meteohub,2014-11-24 13:12:00,
2014-11-24 08:17:00,79.2,77.5,29.99,North,0,4.0,8.0,95,0.00,,,0.00,207.0,meteohub,2014-11-24 13:17:00,
2014-11-24 08:22:00,79.3,77.7,30.00,North,0,9.0,9.0,95,0.00,,,0.00,227.0,meteohub,2014-11-24 13:22:00,
2014-11-24 08:27:00,79.3,77.5,30.00,North,0,6.0,10.0,94,0.00,,,0.00,229.0,meteohub,2014-11-24 13:27:00,
2014-11-24 08:32:00,79.7,77.9,30.00,North,0,0.0,10.0,94,0.00,,,0.00,253.0,meteohub,2014-11-24 13:32:00,
2014-11-24 08:37:00,80.1,78.3,30.00,North,0,6.0,11.0,94,0.00,,,0.00,278.0,meteohub,2014-11-24 13:37:00,
2014-11-24 08:42:00,80.4,78.6,30.01,North,0,5.0,11.0,94,0.00,,,0.00,290.0,meteohub,2014-11-24 13:42:00,
2014-11-24 08:47:00,80.8,78.3,30.00,North,0,8.0,11.0,92,0.00,,,0.00,313.0,meteohub,2014-11-24 13:47:00,
2014-11-24 08:52:00,81.0,78.1,30.00,North,0,7.0,13.0,91,0.00,,,0.00,322.0,meteohub,2014-11-24 13:52:00,
2014-11-24 08:57:00,81.1,77.9,30.01,North,0,7.0,13.0,90,0.00,,,0.00,294.0,meteohub,2014-11-24 13:57:00,
2014-11-24 09:02:00,81.0,77.7,30.01,North,0,9.0,14.0,90,0.00,,,0.00,346.0,meteohub,2014-11-24 14:02:00,
2014-11-24 09:07:00,81.3,78.1,30.01,North,0,13.0,14.0,90,0.00,,,0.00,360.0,meteohub,2014-11-24 14:07:00,
2014-11-24 09:12:00,81.9,78.3,30.00,North,0,8.0,14.0,89,0.00,,,0.00,341.0,meteohub,2014-11-24 14:12:00,
2014-11-24 09:17:00,81.3,77.4,30.01,North,0,6.0,14.0,88,0.00,,,0.00,81.0,meteohub,2014-11-24 14:17:00,
2014-11-24 09:22:00,81.7,77.7,30.01,North,0,6.0,14.0,88,0.00,,,0.00,404.0,meteohub,2014-11-24 14:22:00,
2014-11-24 09:27:00,82.0,78.1,30.01,North,0,6.0,14.0,88,0.00,,,0.00,425.0,meteohub,2014-11-24 14:27:00,
2014-11-24 09:32:00,81.9,77.2,30.01,North,0,6.0,12.0,86,0.00,,,0.00,86.0,meteohub,2014-11-24 14:32:00,
2014-11-24 09:37:00,81.3,77.0,30.01,North,0,6.0,12.0,87,0.00,,,0.00,95.0,meteohub,2014-11-24 14:37:00,
2014-11-24 09:42:00,81.3,77.0,30.01,North,0,10.0,12.0,87,0.00,,,0.00,121.0,meteohub,2014-11-24 14:42:00,
2014-11-24 09:47:00,81.9,77.5,30.01,North,0,6.0,12.0,87,0.00,,,0.00,478.0,meteohub,2014-11-24 14:47:00,